Location: Felsheim
(48.7267°N, 10.7386°E)
Time: 13:54:20
(UTC+00:00)

COSMOS 2455 - Pass Details

Date: 09 April 2020
Orbit: 900 x 910 km, 67.1° (Epoch: 25 May)

Event Time Altitude Azimuth Distance (km) Brightness Sun altitude
Rises 20:01:32 0° 320° (NW) 3,547 7.4 -18.8°
Reaches altitude 10° 20:04:11 10° 314° (NW) 2,602 6.5 -19.1°
Maximum altitude 20:09:43 39° 247° (WSW) 1,334 3.9 -19.9°
Enters shadow 20:13:56 16° 187° (S) 2,159 4.5 -20.4°
